Weather History for KBKX - May, 2013

Change the Weather History Date:

Sunday, May 19, 2013

  Actual Average Record
Temperature  
Mean Temperature 66 °F -  
Max Temperature 71 °F 64 °F 78 °F (1998)
Min Temperature 60 °F 43 °F 32 °F (2002)
Growing Degree Days 16 (Base 50)    
Moisture  
Dew Point 60 °F    
Average Humidity 82    
Maximum Humidity 100    
Minimum Humidity 68    
Precipitation  
Precipitation 0.00 in - - ()
Sea Level Pressure  
Sea Level Pressure 29.64 in    
Wind  
Wind Speed 10 mph (SSW)    
Max Wind Speed 24 mph    
Max Gust Speed 38 mph    
Visibility 10 miles    
Events Thunderstorm    
Averages and records for this station are not official NWS values.
T = Trace of Precipitation, MM = Missing Value Source: NWS Daily Summary

Daily Weather History Graph

Daily Weather History Graph

Search for Another Location

Airport or City:

Trip Planner

Search our weather history database for the weather conditions in past years. The results will help you decide how hot, cold, wet, or windy it might be!

Date:

Astronomy

May. 19, 2013 Rise Set
Actual Time 5:55 AM CDT 8:52 PM CDT
Civil Twilight 5:21 AM CDT 9:26 PM CDT
Nautical Twilight 4:38 AM CDT 10:10 PM CDT
Astronomical Twilight 3:46 AM CDT 11:02 PM CDT
Moon 2:45 PM CDT (5/19) 2:33 AM CDT (5/19)
Length of Visible Light 16h 04m
Length of Day
14h 56m
Waxing Gibbous, 65% of the Moon is Illuminated
May 19
Waxing Gibbous
May 24
Full
May 31
Last Quarter
Jun 8
New
Jun 16
First Quarter

Hourly Weather History & Observations

Time (CDT) Temp. Dew Point Humidity Pressure Visibility Wind Dir Wind Speed Gust Speed Precip Events Conditions
12:15 AM 71.6 °F 60.8 °F 69% 29.71 in 10.0 mi South 10.4 mph - N/A   Overcast
12:35 AM 71.6 °F 60.8 °F 69% 29.71 in 10.0 mi South 15.0 mph 18.4 mph N/A   Mostly Cloudy
12:55 AM 71.6 °F 60.8 °F 69% 29.71 in 10.0 mi SSW 12.7 mph 18.4 mph N/A   Scattered Clouds
1:15 AM 71.6 °F 60.8 °F 69% 29.69 in 10.0 mi SSW 13.8 mph 21.9 mph N/A   Mostly Cloudy
1:35 AM 71.6 °F 60.8 °F 69% 29.69 in 10.0 mi SSW 16.1 mph 23.0 mph N/A   Mostly Cloudy
1:55 AM 69.8 °F 62.6 °F 78% 29.71 in 5.0 mi WSW 24.2 mph 38.0 mph N/A Thunderstorm Mostly Cloudy
2:15 AM 62.6 °F 59.0 °F 88% 29.72 in 5.0 mi SW 12.7 mph 24.2 mph N/A Thunderstorm Thunderstorm
2:35 AM 62.6 °F 60.8 °F 94% 29.72 in 9.0 mi SSW 6.9 mph - N/A   Overcast
2:55 AM 62.6 °F 60.8 °F 94% 29.72 in 6.0 mi South 6.9 mph - N/A   Overcast
3:15 AM 62.6 °F 60.8 °F 94% 29.69 in 10.0 mi Calm Calm - N/A   Overcast
3:35 AM 62.6 °F 60.8 °F 94% 29.68 in 10.0 mi SE 6.9 mph - N/A   Overcast
3:55 AM 62.6 °F 60.8 °F 94% 29.68 in 10.0 mi SSE 5.8 mph - N/A   Overcast
4:15 AM 62.6 °F 60.8 °F 94% 29.67 in 10.0 mi SSE 9.2 mph - N/A   Overcast
4:35 AM 62.6 °F 60.8 °F 94% 29.65 in 9.0 mi SSE 9.2 mph - N/A   Mostly Cloudy
4:55 AM 62.6 °F 60.8 °F 94% 29.64 in 8.0 mi SSE 6.9 mph - N/A   Partly Cloudy
5:15 AM 62.6 °F 60.8 °F 94% 29.64 in 8.0 mi South 6.9 mph - N/A   Scattered Clouds
5:35 AM 60.8 °F 60.8 °F 100% 29.62 in 9.0 mi SSE 8.1 mph - N/A   Scattered Clouds
5:55 AM 60.8 °F 59.0 °F 94% 29.62 in 9.0 mi SSE 6.9 mph - N/A   Scattered Clouds
6:15 AM 60.8 °F 59.0 °F 94% 29.61 in 8.0 mi SSE 6.9 mph - N/A   Clear
6:35 AM 62.6 °F 60.8 °F 94% 29.60 in 8.0 mi SE 5.8 mph - N/A   Clear
7:15 AM 62.6 °F 60.8 °F 94% 29.63 in 6.0 mi South 10.4 mph - N/A   Clear
7:35 AM 62.6 °F 60.8 °F 94% 29.64 in 9.0 mi South 9.2 mph - N/A   Clear
7:55 AM 62.6 °F 60.8 °F 94% 29.62 in 10.0 mi South 10.4 mph - N/A   Clear
8:15 AM 62.6 °F 60.8 °F 94% 29.64 in 10.0 mi SSW 11.5 mph - N/A   Scattered Clouds
8:35 AM 62.6 °F 60.8 °F 94% 29.65 in 10.0 mi SSW 9.2 mph - N/A   Overcast
8:55 AM 62.6 °F 60.8 °F 94% 29.66 in 10.0 mi SW 8.1 mph - N/A   Overcast
9:15 AM 62.6 °F 59.0 °F 88% 29.68 in 10.0 mi WSW 9.2 mph - N/A   Overcast
9:55 AM 62.6 °F 59.0 °F 88% 29.68 in 10.0 mi WSW 10.4 mph - N/A   Overcast
10:15 AM 64.4 °F 59.0 °F 83% 29.68 in 10.0 mi SW 10.4 mph 16.1 mph N/A   Overcast
10:35 AM 64.4 °F 59.0 °F 83% 29.67 in 10.0 mi SW 11.5 mph - N/A   Overcast
10:55 AM 66.2 °F 59.0 °F 78% 29.66 in 10.0 mi West 8.1 mph - N/A   Overcast
11:15 AM 66.2 °F 59.0 °F 78% 29.66 in 10.0 mi WSW 10.4 mph - N/A   Mostly Cloudy
11:35 AM 66.2 °F 60.8 °F 83% 29.67 in 10.0 mi SW 15.0 mph 18.4 mph N/A   Overcast
11:55 AM 66.2 °F 60.8 °F 83% 29.66 in 10.0 mi SW 10.4 mph 18.4 mph N/A   Overcast
12:15 PM 68.0 °F 60.8 °F 78% 29.67 in 10.0 mi SSW 12.7 mph - N/A   Overcast
12:35 PM 68.0 °F 60.8 °F 78% 29.66 in 10.0 mi SW 10.4 mph - N/A   Overcast
12:55 PM 68.0 °F 60.8 °F 78% 29.66 in 10.0 mi SW 11.5 mph - N/A   Overcast
1:15 PM 68.0 °F 59.0 °F 73% 29.65 in 10.0 mi SW 9.2 mph - N/A   Mostly Cloudy
1:35 PM 68.0 °F 59.0 °F 73% 29.65 in 10.0 mi SW 10.4 mph - N/A   Partly Cloudy
2:15 PM 68.0 °F 59.0 °F 73% 29.65 in 10.0 mi SW 8.1 mph - N/A   Partly Cloudy
2:35 PM 68.0 °F 59.0 °F 73% 29.65 in 10.0 mi SW 12.7 mph - N/A   Mostly Cloudy
2:55 PM 69.8 °F 60.8 °F 73% 29.66 in 10.0 mi SSW 11.5 mph 16.1 mph N/A   Overcast
3:15 PM 69.8 °F 60.8 °F 73% 29.66 in 10.0 mi SSW 12.7 mph - N/A   Overcast
3:35 PM 69.8 °F 60.8 °F 73% 29.66 in 10.0 mi SSW 11.5 mph 16.1 mph N/A   Overcast
3:55 PM 69.8 °F 60.8 °F 73% 29.66 in 10.0 mi SW 10.4 mph - N/A   Overcast
4:15 PM 68.0 °F 60.8 °F 78% 29.66 in 10.0 mi SW 11.5 mph - N/A   Overcast
4:35 PM 69.8 °F 60.8 °F 73% 29.64 in 10.0 mi SW 10.4 mph - N/A   Mostly Cloudy
4:55 PM 69.8 °F 62.6 °F 78% 29.63 in 10.0 mi SW 9.2 mph - N/A   Partly Cloudy
5:15 PM 69.8 °F 60.8 °F 73% 29.62 in 10.0 mi South 8.1 mph - N/A   Partly Cloudy
5:35 PM 69.8 °F 60.8 °F 73% 29.62 in 10.0 mi South 9.2 mph - N/A   Scattered Clouds
5:55 PM 69.8 °F 60.8 °F 73% 29.61 in 10.0 mi SSW 6.9 mph - N/A   Partly Cloudy
6:15 PM 69.8 °F 59.0 °F 68% 29.58 in 10.0 mi SSW 5.8 mph - N/A   Clear
6:35 PM 69.8 °F 59.0 °F 68% 29.57 in 10.0 mi South 5.8 mph - N/A   Clear
6:55 PM 69.8 °F 59.0 °F 68% 29.58 in 10.0 mi SSW 5.8 mph - N/A   Clear
7:15 PM 68.0 °F 59.0 °F 73% 29.56 in 10.0 mi SSE 4.6 mph - N/A   Clear
7:35 PM 68.0 °F 59.0 °F 73% 29.57 in 10.0 mi South 3.5 mph - N/A   Clear
7:55 PM 66.2 °F 59.0 °F 78% 29.59 in 10.0 mi South 4.6 mph - N/A   Clear
8:15 PM 66.2 °F 60.8 °F 83% 29.60 in 10.0 mi South 6.9 mph - N/A   Clear
8:35 PM 66.2 °F 59.0 °F 78% 29.59 in 10.0 mi South 5.8 mph - N/A   Clear
8:55 PM 64.4 °F 59.0 °F 83% 29.59 in 10.0 mi South 6.9 mph - N/A   Clear
9:15 PM 64.4 °F 59.0 °F 83% 29.58 in 10.0 mi South 4.6 mph - N/A   Clear
9:35 PM 62.6 °F 59.0 °F 88% 29.58 in 10.0 mi SSE 3.5 mph - N/A   Clear
9:55 PM 62.6 °F 59.0 °F 88% 29.58 in 10.0 mi SSE 4.6 mph - N/A   Clear
10:15 PM 62.6 °F 59.0 °F 88% 29.58 in 10.0 mi SE 4.6 mph - N/A   Clear
10:35 PM 62.6 °F 59.0 °F 88% 29.57 in 10.0 mi Calm Calm - N/A   Clear
10:55 PM 60.8 °F 57.2 °F 88% 29.56 in 10.0 mi Calm Calm - N/A   Clear
11:15 PM 62.6 °F 59.0 °F 88% 29.56 in 10.0 mi Calm Calm - N/A   Mostly Cloudy
11:35 PM 62.6 °F 57.2 °F 82% 29.56 in 10.0 mi SE 3.5 mph - N/A   Overcast
11:55 PM 62.6 °F 59.0 °F 88% 29.56 in 8.0 mi SSE 5.8 mph - N/A   Overcast